This demonstration page uses our WeatherBlox Daily Observations layout. Learn more.

Left ArrowRight Arrow

Hourly Observations for March 21, 2017

Temp ( °F °C ) Dew Point ( °F °C ) Humidity (%) Winds ( mph kmh ) Pressure ( in mb ) Visibility ( mi km ) Precip ( " mm )
12:29 am 00:29 Cloudy with Mist and Fog 48 8.9 48 8.9 100 100 N N/A 30.06 1018 2 3.21868 N/A
12:43 am 00:43 Cloudy with Mist and Fog 48 8.9 47 8.3 96 96 N N/A 30.03 1017 3 4.82802 N/A
12:53 am 00:53 Cloudy with Mist and Fog 48 8.9 47 8.3 96 96 N N/A 30.02 1017 3 4.82802 N/A
1:01 am 01:01 Cloudy with Mist and Fog 48 8.9 48 8.9 100 100 N N/A 30.03 1017 2.5 4.02335 N/A
1:09 am 01:09 Cloudy with Mist and Fog 48 8.9 48 8.9 100 100 N N/A 30.03 1017 3 4.82802 N/A
1:53 am 01:53 Cloudy with Mist and Fog 48 8.9 47 8.3 96 96 WSW 3 6 30.01 1016 2 3.21868 N/A
2:20 am 02:20 Cloudy with Mist and Fog 48 8.9 48 8.9 100 100 WSW 3 6 30.03 1017 3 4.82802 N/A
2:30 am 02:30 Cloudy with Mist and Fog 48 8.9 47 8.3 96 96 W 3 6 30.03 1017 2.5 4.02335 N/A
2:37 am 02:37 Cloudy with Mist and Fog 48 8.9 47 8.3 96 96 NW 3 6 30.03 1017 3 4.82802 N/A
2:53 am 02:53 Cloudy with Mist and Fog 48 8.9 48 8.9 100 100 N N/A 30.01 1016 2.5 4.02335 N/A
3:27 am 03:27 Cloudy with Mist and Fog 47 8.3 47 8.3 100 100 NW 5 7 30.06 1018 3 4.82802 N/A
3:49 am 03:49 Cloudy with Mist and Fog 46 8 46 8 100 100 N 5 7 30.03 1017 3 4.82802 N/A
3:53 am 03:53 Cloudy with Mist and Fog 47 8.3 47 8.3 100 100 NNW 6 9 30.02 1017 3 4.82802 N/A
4:53 am 04:53 Cloudy with Mist and Fog 48 8.9 47 8.3 96 96 NW 5 7 30.04 1017 4 6.43736 N/A
5:25 am 05:25 Cloudy with Mist and Fog 48 8.9 47 8.3 96 96 N N/A 30.06 1018 4 6.43736 N/A
5:53 am 05:53 Cloudy with Mist and Fog 47 8.3 47 8.3 100 100 NNW 3 6 30.04 1017 4 6.43736 N/A
6:11 am 06:11 Cloudy with Mist and Fog 47 8.3 47 8.3 100 100 NW 5 7 30.06 1018 4 6.43736 N/A
6:20 am 06:20 Cloudy with Mist and Fog 48 8.9 47 8.3 96 96 NW 5 7 30.06 1018 4 6.43736 N/A
6:40 am 06:40 Cloudy with Mist and Fog 48 8.9 47 8.3 96 96 NNW 5 7 30.09 1019 4 6.43736 N/A
6:53 am 06:53 Cloudy with Mist and Fog 48 8.9 47 8.3 96 96 NNW 5 7 30.06 1018 4 6.43736 N/A
7:53 am 07:53 Cloudy with Mist and Fog 48 8.9 46 7.8 93 93 N 8 13 30.08 1019 5 8.0467 N/A
8:53 am 08:53 Cloudy with Mist and Fog 46 7.8 45 7.2 96 96 N 6 9 30.12 1020 3 4.82802 N/A
9:42 am 09:42 Cloudy with Mist and Fog 47 8.3 44 6.7 90 90 NNE 6 9 30.12 1020 5 8.0467 N/A
9:53 am 09:53 Cloudy with Mist and Fog 47 8.3 44 6.7 90 90 N 9 15 30.14 1021 5 8.0467 N/A
10:43 am 10:43 Mostly Cloudy with Haze 48 8.9 43 6.1 83 83 NNE 7 11 30.15 1021 6 9.65604 N/A
10:53 am 10:53 Mostly Cloudy with Haze 50 10 44 6.7 80 80 NNE 7 11 30.14 1021 6 9.65604 N/A
11:53 am 11:53 Mostly Cloudy with Haze 52 11.1 45 7.2 77 77 NNW 5 7 30.15 1021 6 9.65604 N/A
12:05 pm 12:05 Hazy 52 11.1 44 6.7 75 75 NNE 8 13 30.15 1021 6 9.65604 N/A
12:53 pm 12:53 Mostly Sunny 54 12.2 44 6.7 69 69 N N/A 30.14 1021 7 11.26538 N/A
1:53 pm 13:53 Mostly Sunny 56 13.3 45 7.2 67 67 ENE 5 7 30.13 1020 7 11.26538 N/A
2:53 pm 14:53 Mostly Cloudy 58 14.4 45 7.2 62 62 undefined N/A 30.1 1019 8 12.87472 N/A
3:53 pm 15:53 Mostly Cloudy 60 15.6 45 7.2 58 58 WNW 6 9 30.09 1019 10 16.0934 N/A
4:53 pm 16:53 Mostly Cloudy 59 15 44 6.7 58 58 NNW 12 19 30.11 1020 10 16.0934 N/A
5:53 pm 17:53 Cloudy 58 14.4 40 4.4 51 51 NNW 13 20 30.12 1020 10 16.0934 N/A
6:53 pm 18:53 Mostly Cloudy 56 13.3 36 2.2 47 47 N 13 20 30.14 1021 10 16.0934 N/A
7:53 pm 19:53 Cloudy 51 10.6 39 3.9 64 64 NNW 15 24 30.16 1021 10 16.0934 N/A
8:53 pm 20:53 Cloudy with Light Rain 49 9.4 39 3.9 69 69 NW 9 15 30.17 1022 10 16.0934 N/A
9:53 pm 21:53 Cloudy 49 9.4 39 3.9 69 69 WNW 7 11 30.18 1022 10 16.0934 N/A
10:53 pm 22:53 Mostly Cloudy 46 7.8 27 -2.8 47 47 N 9 15 30.21 1023 10 16.0934 N/A
11:53 pm 23:53 Clear 42 5.6 26 -3.3 53 53 NNW 15 24 30.23 1024 10 16.0934 N/A

Powered by AerisWeather